Mt. Pocono, PA

10:09 AM EST on January 22, 2018 (GMT -0500)
Pocono Mountains Municipal

Weather History for KMPO - February, 2012

Change the Weather History Date:

Friday, February 3, 2012

  Actual Average Record
Temperature  
Mean Temperature 31 °F 24 °F  
Max Temperature 36 °F 32 °F 52 °F (1973)
Min Temperature 25 °F 16 °F -10 °F (1971)
Degree Days  
Heating Degree Days 34 41  
Month to date heating degree days 87 123  
Since 1 July heating degree days 3411 4154  
Cooling Degree Days 0 0  
Month to date cooling degree days 0 0  
Year to date cooling degree days 0 0  
Moisture  
Dew Point 18 °F    
Average Humidity 61    
Maximum Humidity 75    
Minimum Humidity 47    
Precipitation  
Precipitation 0.00 in 0.07 in 2.19 in (1983)
Month to date precipitation T 0.22  
Year to date precipitation 3.22 3.07  
Sea Level Pressure  
Sea Level Pressure 30.38 in    
Wind  
Wind Speed 9 mph (NW)    
Max Wind Speed 24 mph    
Max Gust Speed 33 mph    
Visibility 10 miles    
Events      
T = Trace of Precipitation, MM = Missing Value Source: NWS Daily Summary

Daily Weather History Graph

Daily Weather History Graph

Search for Another Location

Airport or City:

Trip Planner

Search our weather history database for the weather conditions in past years. The results will help you decide how hot, cold, wet, or windy it might be!

Date:

Astronomy

Feb. 03, 2012 Rise Set
Actual Time 7:10 AM EST 5:20 PM EST
Civil Twilight 6:41 AM EST 5:49 PM EST
Nautical Twilight 6:09 AM EST 6:22 PM EST
Astronomical Twilight 5:36 AM EST 6:54 PM EST
Moon 1:18 PM EST (2/3) 3:45 AM EST (2/3)
Length of Visible Light 11h 07m
Length of Day
10h 09m
Waxing Gibbous, 81% of the Moon is Illuminated
Feb 3
Waxing Gibbous
Feb 7
Full
Feb 14
Last Quarter
Feb 21
New
Feb 29
First Quarter

Hourly Weather History & Observations

Time (EST) Temp. Windchill Dew Point Humidity Pressure Visibility Wind Dir Wind Speed Gust Speed Precip Events Conditions
12:53 AM 26.1 °F 15.0 °F 19.0 °F 75% 30.29 in 10.0 mi NNW 12.7 mph 23.0 mph N/A   Overcast
1:53 AM 26.1 °F 14.0 °F 19.0 °F 75% 30.30 in 10.0 mi NNW 15.0 mph 23.0 mph N/A   Overcast
2:53 AM 27.0 °F 17.3 °F 19.0 °F 72% 30.28 in 10.0 mi NNW 10.4 mph - N/A   Overcast
3:53 AM 27.0 °F 17.3 °F 19.9 °F 75% 30.31 in 10.0 mi NNW 10.4 mph 18.4 mph N/A   Overcast
4:53 AM 26.1 °F 14.5 °F 19.0 °F 75% 30.33 in 10.0 mi NNW 13.8 mph 18.4 mph N/A   Overcast
5:53 AM 26.1 °F 15.6 °F 18.0 °F 71% 30.39 in 10.0 mi NW 11.5 mph 17.3 mph N/A   Overcast
6:53 AM 25.0 °F 14.8 °F 17.1 °F 72% 30.40 in 10.0 mi NNW 10.4 mph 19.6 mph N/A   Mostly Cloudy
7:04 AM 24.8 °F 13.4 °F 17.6 °F 74% 30.31 in 10.0 mi NNW 12.7 mph 19.6 mph N/A   Partly Cloudy
7:53 AM 25.0 °F 15.5 °F 17.1 °F 72% 30.40 in 10.0 mi NNW 9.2 mph 21.9 mph N/A   Scattered Clouds
8:53 AM 27.0 °F 15.6 °F 16.0 °F 63% 30.41 in 10.0 mi NW 13.8 mph 23.0 mph N/A   Clear
9:53 AM 28.0 °F 17.0 °F 16.0 °F 61% 30.26 in 10.0 mi NNW 13.8 mph 23.0 mph N/A   Clear
10:53 AM 30.9 °F 21.2 °F 16.0 °F 54% 30.35 in 10.0 mi NW 12.7 mph - N/A   Clear
11:53 AM 32.0 °F 23.0 °F 17.1 °F 54% 30.51 in 10.0 mi NW 11.5 mph 19.6 mph N/A   Clear
12:53 PM 33.1 °F 24.4 °F 17.1 °F 52% 30.42 in 10.0 mi WNW 11.5 mph 17.3 mph N/A   Clear
1:53 PM 34.0 °F 26.6 °F 16.0 °F 48% 30.39 in 10.0 mi NW 9.2 mph 18.4 mph N/A   Clear
2:53 PM 35.1 °F 27.9 °F 17.1 °F 48% 30.40 in 10.0 mi NW 9.2 mph - N/A   Clear
3:53 PM 34.0 °F 24.6 °F 19.0 °F 54% 30.47 in 10.0 mi WNW 13.8 mph 19.6 mph N/A   Clear
4:53 PM 33.1 °F 26.9 °F 19.0 °F 56% 30.36 in 10.0 mi NW 6.9 mph - N/A   Partly Cloudy
5:53 PM 30.9 °F 26.2 °F 19.0 °F 61% 30.42 in 10.0 mi WNW 4.6 mph - N/A   Clear
6:53 PM 32.0 °F 28.7 °F 19.0 °F 59% 30.48 in 10.0 mi NW 3.5 mph - N/A   Clear
7:53 PM 28.9 °F - 19.9 °F 69% 30.47 in 10.0 mi Calm Calm - N/A   Clear
8:53 PM 28.0 °F 22.8 °F 19.0 °F 69% 30.43 in 10.0 mi West 4.6 mph - N/A   Clear
9:53 PM 27.0 °F 23.0 °F 19.0 °F 72% 30.38 in 10.0 mi West 3.5 mph - N/A   Mostly Cloudy
10:53 PM 28.0 °F 22.8 °F 19.9 °F 72% 30.33 in 10.0 mi West 4.6 mph - N/A   Overcast
11:53 PM 30.0 °F 26.5 °F 19.9 °F 66% 30.32 in 10.0 mi West 3.5 mph - N/A   Overcast